DLH17C EDDN-LOWS

Flight info

Callsign DLH17C
Flight time 0h 33m
Altitude 23000
Route BOLSI1G/28 BOLSI Y167 AKANU L603 OLETU T702 BADIT BADIT2R
Aircraft A20N/M-SDE2E3FGHIRWXY/LB1

Departure

Time 2026-05-04 14:02
Airport Nuremberg Airport (EDDN)

Arrival

Time 2026-05-04 14:35
Airport Salzburg Airport (LOWS)
Time Latitude Longitude Altitude Speed Heading
2026-05-04 13:41 49.49460 11.08308 1030 ft 0 kts 188°
2026-05-04 13:53 49.49462 11.08309 1030 ft 3 kts 188°
2026-05-04 13:54 49.49498 11.08317 1031 ft 3 kts 188°
2026-05-04 13:54 49.49517 11.08315 1029 ft 3 kts 149°
2026-05-04 13:54 49.49531 11.08286 1031 ft 0 kts 101°
2026-05-04 13:57 49.49534 11.08314 1031 ft 5 kts 70°
2026-05-04 13:58 49.49600 11.08608 1039 ft 19 kts 98°
2026-05-04 13:58 49.49548 11.09123 1044 ft 29 kts 99°
2026-05-04 13:58 49.49531 11.09335 1048 ft 13 kts 82°
2026-05-04 13:59 49.49571 11.09444 1051 ft 10 kts 54°
2026-05-04 13:59 49.49588 11.09480 1052 ft 0 kts 53°
2026-05-04 14:00 49.49606 11.09516 1042 ft 6 kts 49°
2026-05-04 14:00 49.49636 11.09544 1054 ft 5 kts 18°
2026-05-04 14:01 49.49685 11.09523 1055 ft 13 kts 317°
2026-05-04 14:01 49.49723 11.09307 1051 ft 37 kts 279°
2026-05-04 14:01 49.49927 11.07197 1028 ft 157 kts 275°
2026-05-04 14:02 49.49929 11.05478 1543 ft 154 kts 267°
2026-05-04 14:02 49.49754 11.03897 2279 ft 149 kts 258°
2026-05-04 14:02 49.49428 11.02391 2996 ft 151 kts 250°
2026-05-04 14:02 49.49139 11.00822 3611 ft 139 kts 261°
2026-05-04 14:03 49.49071 10.99440 3790 ft 144 kts 278°
2026-05-04 14:03 49.49589 10.97895 3966 ft 182 kts 304°
2026-05-04 14:03 49.50282 10.96120 4292 ft 206 kts 296°
2026-05-04 14:03 49.50797 10.93973 4787 ft 219 kts 281°
2026-05-04 14:04 49.50184 10.89105 5424 ft 255 kts 247°
2026-05-04 14:04 49.49430 10.86564 5905 ft 263 kts 245°
2026-05-04 14:04 49.48647 10.84030 6517 ft 266 kts 244°
2026-05-04 14:05 49.46902 10.78980 6969 ft 269 kts 231°
2026-05-04 14:05 49.45496 10.77106 6972 ft 269 kts 209°
2026-05-04 14:05 49.43699 10.76254 7224 ft 274 kts 187°
2026-05-04 14:06 49.41813 10.76100 7943 ft 274 kts 182°
2026-05-04 14:06 49.39907 10.76078 8719 ft 271 kts 181°
2026-05-04 14:06 49.38040 10.76070 9371 ft 270 kts 182°
2026-05-04 14:06 49.36154 10.76053 10050 ft 270 kts 182°
2026-05-04 14:07 49.34239 10.76028 10402 ft 280 kts 182°
2026-05-04 14:07 49.32265 10.75999 10618 ft 292 kts 182°
2026-05-04 14:07 49.30191 10.75965 10938 ft 300 kts 182°
2026-05-04 14:07 49.28111 10.75932 11337 ft 303 kts 182°
2026-05-04 14:08 49.25992 10.75897 11762 ft 305 kts 182°
2026-05-04 14:08 49.23857 10.75757 12197 ft 306 kts 187°
2026-05-04 14:08 49.21773 10.75109 12608 ft 307 kts 195°
2026-05-04 14:08 49.19727 10.74156 12998 ft 310 kts 198°
2026-05-04 14:09 49.15670 10.71864 13760 ft 314 kts 200°
2026-05-04 14:09 49.13620 10.70657 14111 ft 315 kts 200°
2026-05-04 14:10 49.09452 10.68497 14744 ft 321 kts 192°
2026-05-04 14:10 49.07165 10.68123 15031 ft 340 kts 181°
2026-05-04 14:10 49.04772 10.68597 15400 ft 359 kts 167°
2026-05-04 14:10 49.02435 10.70129 15984 ft 372 kts 151°
2026-05-04 14:11 49.00362 10.72447 16647 ft 380 kts 143°
2026-05-04 14:11 48.96434 10.78029 17999 ft 392 kts 138°
2026-05-04 14:11 48.94484 10.81028 18608 ft 397 kts 138°
2026-05-04 14:12 48.92553 10.83998 19138 ft 401 kts 138°
2026-05-04 14:12 48.90553 10.87035 19699 ft 405 kts 139°
2026-05-04 14:12 48.86491 10.93077 20768 ft 413 kts 139°
2026-05-04 14:13 48.84432 10.96095 21293 ft 417 kts 139°
2026-05-04 14:13 48.82318 10.99179 21824 ft 421 kts 139°
2026-05-04 14:13 48.80189 11.02275 22354 ft 425 kts 139°
2026-05-04 14:13 48.78060 11.05368 22806 ft 429 kts 139°
2026-05-04 14:14 48.75877 11.08532 22970 ft 437 kts 139°
2026-05-04 14:14 48.71374 11.15035 22965 ft 455 kts 139°
2026-05-04 14:14 48.69069 11.18364 22965 ft 456 kts 139°
2026-05-04 14:15 48.64577 11.25124 22963 ft 458 kts 133°
2026-05-04 14:15 48.60664 11.32495 22969 ft 459 kts 130°
2026-05-04 14:16 48.56880 11.40085 22945 ft 460 kts 129°
2026-05-04 14:16 48.54964 11.43969 22946 ft 460 kts 129°
2026-05-04 14:17 48.51142 11.51685 22946 ft 460 kts 129°
2026-05-04 14:17 48.49200 11.55579 22946 ft 460 kts 129°
2026-05-04 14:17 48.45982 11.63915 22944 ft 465 kts 116°
2026-05-04 14:18 48.44751 11.68388 22941 ft 465 kts 114°
2026-05-04 14:18 48.42508 11.77555 22937 ft 466 kts 111°
2026-05-04 14:19 48.40351 11.86729 22530 ft 465 kts 112°
2026-05-04 14:19 48.39263 11.91308 21704 ft 462 kts 112°
2026-05-04 14:19 48.38186 11.95798 21010 ft 456 kts 112°
2026-05-04 14:19 48.37104 12.00269 20317 ft 450 kts 112°
2026-05-04 14:20 48.36040 12.04637 19636 ft 445 kts 112°
2026-05-04 14:20 48.34971 12.09007 18965 ft 440 kts 113°
2026-05-04 14:20 48.33916 12.13304 18303 ft 435 kts 113°
2026-05-04 14:21 48.31852 12.21689 16826 ft 425 kts 113°
2026-05-04 14:21 48.30826 12.25852 16105 ft 419 kts 113°
2026-05-04 14:21 48.29825 12.29900 15416 ft 414 kts 113°
2026-05-04 14:21 48.28830 12.33912 14735 ft 409 kts 113°
2026-05-04 14:22 48.27837 12.37913 14053 ft 404 kts 113°
2026-05-04 14:22 48.26869 12.41813 13361 ft 400 kts 113°
2026-05-04 14:22 48.25893 12.45736 12560 ft 396 kts 113°
2026-05-04 14:22 48.24939 12.49560 11806 ft 393 kts 113°
2026-05-04 14:23 48.23028 12.57212 10459 ft 384 kts 113°
2026-05-04 14:23 48.22113 12.60871 10177 ft 369 kts 113°
2026-05-04 14:23 48.21225 12.64415 9893 ft 356 kts 113°
2026-05-04 14:24 48.20363 12.67843 9267 ft 352 kts 113°
2026-05-04 14:24 48.19494 12.71292 8524 ft 352 kts 112°
2026-05-04 14:24 48.18641 12.74676 7806 ft 350 kts 112°
2026-05-04 14:24 48.17777 12.78095 7097 ft 349 kts 112°
2026-05-04 14:25 48.16700 12.81306 6404 ft 347 kts 127°
2026-05-04 14:25 48.13461 12.84594 5319 ft 339 kts 163°
2026-05-04 14:25 48.10491 12.85710 5016 ft 318 kts 166°
2026-05-04 14:26 48.09089 12.86188 4992 ft 304 kts 166°
2026-05-04 14:26 48.07076 12.86872 4992 ft 287 kts 166°
2026-05-04 14:26 48.05172 12.87537 4981 ft 272 kts 165°
2026-05-04 14:26 48.03386 12.88167 4969 ft 257 kts 165°
2026-05-04 14:27 48.01767 12.89005 4984 ft 242 kts 150°
2026-05-04 14:27 48.00477 12.90475 4983 ft 227 kts 129°
2026-05-04 14:27 47.99674 12.92434 4991 ft 222 kts 111°
2026-05-04 14:27 47.99172 12.94633 5023 ft 224 kts 106°
2026-05-04 14:28 47.98738 12.96882 4981 ft 223 kts 106°
2026-05-04 14:28 47.98193 12.99018 4988 ft 223 kts 119°
2026-05-04 14:28 47.97211 13.00822 4987 ft 223 kts 140°
2026-05-04 14:28 47.95843 13.01926 5007 ft 226 kts 161°
2026-05-04 14:29 47.92885 13.02922 5013 ft 206 kts 167°
2026-05-04 14:29 47.90192 13.03696 4979 ft 183 kts 167°
2026-05-04 14:30 47.88999 13.04049 4961 ft 168 kts 166°
2026-05-04 14:30 47.87880 13.04386 4964 ft 161 kts 166°
2026-05-04 14:30 47.85691 13.05052 4603 ft 162 kts 166°
2026-05-04 14:31 47.84579 13.05394 4380 ft 162 kts 166°
2026-05-04 14:31 47.82362 13.06066 3936 ft 163 kts 166°
2026-05-04 14:32 47.80242 13.06717 3540 ft 152 kts 166°
2026-05-04 14:32 47.79227 13.07026 3281 ft 148 kts 166°
2026-05-04 14:32 47.78219 13.07327 3093 ft 147 kts 168°
2026-05-04 14:32 47.77255 13.07576 3044 ft 143 kts 170°
2026-05-04 14:33 47.76148 13.07690 2553 ft 175 kts 180°
2026-05-04 14:33 47.74944 13.07183 2205 ft 184 kts 211°
2026-05-04 14:33 47.74166 13.05810 2124 ft 167 kts 254°
2026-05-04 14:33 47.74248 13.04302 2194 ft 133 kts 298°
2026-05-04 14:34 47.74849 13.02993 2312 ft 167 kts 314°
2026-05-04 14:34 47.75709 13.02035 2146 ft 148 kts 338°
2026-05-04 14:34 47.76683 13.01749 1848 ft 138 kts 360°
2026-05-04 14:34 47.77591 13.01521 1613 ft 129 kts 335°
2026-05-04 14:35 47.78377 13.00977 1423 ft 117 kts 340°
2026-05-04 14:35 47.78950 13.00634 1423 ft 46 kts 339°
2026-05-04 14:35 47.79106 13.00495 1421 ft 20 kts 292°
2026-05-04 14:35 47.79117 13.00403 1423 ft 0 kts 274°
2026-05-04 14:37 47.79118 13.00394 1423 ft 4 kts 275°
2026-05-04 14:37 47.79118 13.00393 1423 ft 0 kts 275°
2026-05-04 14:38 47.79118 13.00342 1423 ft 10 kts 262°
2026-05-04 14:38 47.79023 13.00319 1423 ft 12 kts 156°
2026-05-04 14:38 47.78954 13.00251 1425 ft 18 kts 263°
2026-05-04 14:39 47.79021 13.00073 1425 ft 23 kts 285°
2026-05-04 14:39 47.79031 12.99994 1425 ft 0 kts 280°